Location: Prescott
(34.5400°N, 112.4680°W)
Time: 09:25:46
(UTC-07:00)

Amateur Radio Satellites - All Passes

Search period start: 31 October 2014 08:55
Search period end: 01 November 2014 08:55
Location: Prescott, 34.5400°N, 112.4680°W

Satellite Date Start Highest point End Downlink Frequencies (MHz)
Time Altitude Azimuth
Oscar 11 31 Oct 09:09:17 09:11:27 14° 93° (E) 09:13:36 145.825 FM, Beacon 2401.500 USB
ISS 31 Oct 09:10:04 09:13:17 51° 134° (SE) 09:16:31 145.800 FM
KITSAT 1 31 Oct 09:32:34 09:39:37 34° 107° (ESE) 09:46:39 435.175 FM
Sapphire 31 Oct 09:56:43 09:56:49 10° 45° (NE) 09:56:55 437.095 MHz 1200 baud AX-25 AFSK
UKube-1 31 Oct 10:08:24 10:12:47 74° 102° (ESE) 10:17:07 145.840 MHz, 145.915 MHz
HO-68 31 Oct 10:14:57 10:21:52 52° 291° (WNW) 10:28:45 435.675 MHz FM
PCSat 31 Oct 10:15:34 10:18:58 17° 50° (NE) 10:22:21 145.825 MHz
ZACube-1 31 Oct 10:17:32 10:21:21 34° 98° (E) 10:25:08 437.345 MHz
Oscar 11 31 Oct 10:43:43 10:47:46 41° 287° (WNW) 10:51:49 145.825 FM, Beacon 2401.500 USB
SO-50 31 Oct 10:47:49 10:52:17 86° 298° (WNW) 10:56:54 436.795 FM
ISS 31 Oct 10:47:57 10:50:10 17° 330° (NNW) 10:52:24 145.800 FM
FUNcube-1 31 Oct 11:00:11 11:04:20 67° 284° (WNW) 11:08:25 145.950 - 145.970 MHz USB
KITSAT 1 31 Oct 11:27:01 11:34:42 47° 304° (NW) 11:42:27 435.175 FM
UOSAT-12 31 Oct 11:32:47 11:36:24 23° 110° (ESE) 11:40:03 437.025 FM, 437.400 FM
Sapphire 31 Oct 11:35:43 11:41:10 73° 63° (ENE) 11:46:34 437.095 MHz 1200 baud AX-25 AFSK
ZACube-1 31 Oct 11:54:58 11:57:26 16° 292° (WNW) 11:59:53 437.345 MHz
PCSat 31 Oct 11:57:28 12:02:50 65° 247° (WSW) 12:08:10 145.825 MHz
Oscar 16 31 Oct 12:10:06 12:13:29 18° 66° (ENE) 12:16:51 437.025 USB, Beacon 2401.1428
Uribyol 2 31 Oct 12:43:29 12:46:31 16° 64° (ENE) 12:49:33 436.500 FM
AO-Echo 31 Oct 12:44:45 12:48:11 19° 66° (ENE) 12:51:42 ?
ITAMSAT 1 31 Oct 12:51:04 12:54:26 18° 65° (ENE) 12:57:48 435.822 SSB
Oscar 19 31 Oct 13:00:18 13:05:19 56° 74° (ENE) 13:10:20 437.125 CW, 437.150 USB
UOSAT-12 31 Oct 13:12:09 13:16:19 33° 306° (NW) 13:20:35 437.025 FM, 437.400 FM
Sapphire 31 Oct 13:22:02 13:23:52 12° 258° (WSW) 13:25:42 437.095 MHz 1200 baud AX-25 AFSK
JAS-1B 31 Oct 13:23:48 13:29:40 83° 75° (ENE) 13:35:21 435.800 - 435.900 CW/SSB
KITSAT 1 31 Oct 13:30:55 13:32:23 11° 327° (NNW) 13:33:51 435.175 FM
AO-27 31 Oct 13:36:44 13:41:45 51° 73° (ENE) 13:46:48 436.795 MHz FM
Oscar 16 31 Oct 13:47:28 13:52:25 47° 260° (W) 13:57:23 437.025 USB, Beacon 2401.1428
Saudisat 1A 31 Oct 13:49:42 13:53:13 23° 52° (NE) 13:56:42 436.775 MHz
Gurwin Techsat 1B 31 Oct 13:52:53 13:57:42 37° 71° (ENE) 14:02:32 435.225 FM
TMSAT-1 31 Oct 13:59:28 14:04:03 31° 70° (ENE) 14:08:40 436.925 FM
Uribyol 2 31 Oct 14:20:21 14:25:28 56° 259° (W) 14:30:37 436.500 FM
AO-Echo 31 Oct 14:21:53 14:26:33 42° 262° (W) 14:31:25 ?
ITAMSAT 1 31 Oct 14:28:27 14:33:28 49° 260° (W) 14:38:33 435.822 SSB
Oscar 19 31 Oct 14:42:20 14:44:56 14° 267° (W) 14:47:33 437.125 CW, 437.150 USB
AO-7 31 Oct 14:51:09 14:58:19 34° 62° (ENE) 15:05:30 29.400 - 29.500 MHz
AO-27 31 Oct 15:18:22 15:21:30 16° 267° (W) 15:24:39 436.795 MHz FM
Saudisat 1A 31 Oct 15:28:51 15:32:47 32° 247° (WSW) 15:36:41 436.775 MHz
Gurwin Techsat 1B 31 Oct 15:33:34 15:37:42 23° 265° (W) 15:41:51 435.225 FM
TMSAT-1 31 Oct 15:39:26 15:43:53 27° 264° (W) 15:48:23 436.925 FM
JAS-2 31 Oct 15:40:56 15:44:12 15° 58° (ENE) 15:47:39 435.800 - 435.900 CW/SSB, 435.910 FM
ISS 31 Oct 15:42:12 15:44:23 16° 30° (NNE) 15:46:34 145.800 FM
Uosat F 31 Oct 16:13:01 16:18:03 88° 76° (ENE) 16:23:07 435.120 FM
AO-7 31 Oct 16:42:54 16:50:46 48° 258° (WSW) 16:58:43 29.400 - 29.500 MHz
OPAL 31 Oct 16:47:55 16:50:54 16° 96° (E) 16:53:53 ?
Hamsat 31 Oct 17:16:33 17:20:36 49° 75° (ENE) 17:24:38 145.90 MHz
ISS 31 Oct 17:18:02 17:21:18 54° 226° (SW) 17:24:33 145.800 FM
JAS-2 31 Oct 17:21:56 17:28:04 86° 257° (WSW) 17:35:05 435.800 - 435.900 CW/SSB, 435.910 FM
KITSAT 1 31 Oct 17:32:13 17:33:53 11° 33° (NNE) 17:35:32 435.175 FM
Oscar 10/S400 31 Oct 17:44:08 18:07:18 71° 186° (S) 03:40:54 145.825 - 145.975 CW/USB, Beacon 145.810 USB
SO-67 31 Oct 17:58:31 18:00:14 13° 70° (ENE) 18:01:57 435.3500 MHz FM
OPAL 31 Oct 18:25:15 18:29:59 47° 289° (WNW) 18:34:42 ?
STRAND 1 31 Oct 18:43:23 18:48:00 33° 98° (E) 18:52:33 ?
RS-15 31 Oct 18:48:30 18:55:11 18° 100° (E) 19:01:47 29.354 - 29.394 USB, Beacon 29.352 USB
HO-68 31 Oct 18:56:02 18:59:19 14° 57° (ENE) 19:02:35 435.675 MHz FM
Hamsat 31 Oct 18:56:06 18:56:46 10° 268° (W) 18:57:26 145.90 MHz
JAS-2 31 Oct 19:13:52 19:14:15 10° 275° (W) 19:14:38 435.800 - 435.900 CW/SSB, 435.910 FM
SO-50 31 Oct 19:22:50 19:27:16 34° 55° (NE) 19:31:42 436.795 FM
KITSAT 1 31 Oct 19:23:46 19:31:32 48° 56° (ENE) 19:39:14 435.175 FM
SO-67 31 Oct 19:30:02 19:32:55 25° 263° (W) 19:35:50 435.3500 MHz FM
STRAND 1 31 Oct 20:22:51 20:26:59 25° 292° (WNW) 20:31:06 ?
HO-68 31 Oct 20:38:45 20:45:55 84° 73° (ENE) 20:53:08 435.675 MHz FM
RS-15 31 Oct 20:54:55 21:06:00 89° 298° (WNW) 21:16:58 29.354 - 29.394 USB, Beacon 29.352 USB
UKube-1 31 Oct 21:00:23 21:04:26 40° 72° (ENE) 21:08:30 145.840 MHz, 145.915 MHz
SO-50 31 Oct 21:03:43 21:07:38 25° 249° (WSW) 21:11:34 436.795 FM
ZACube-1 31 Oct 21:10:59 21:14:20 21° 70° (ENE) 21:17:38 437.345 MHz
KITSAT 1 31 Oct 21:19:37 21:26:36 34° 253° (WSW) 21:33:35 435.175 FM
Oscar 11 31 Oct 21:34:43 21:39:02 85° 257° (WSW) 21:43:22 145.825 FM, Beacon 2401.500 USB
UOSAT-12 31 Oct 21:44:32 21:49:15 81° 61° (ENE) 21:53:52 437.025 FM, 437.400 FM
FUNcube-1 31 Oct 21:52:26 21:56:55 61° 76° (ENE) 22:01:19 145.950 - 145.970 MHz USB
MaSat-1 31 Oct 21:54:23 21:58:14 49° 294° (WNW) 22:01:45 437.345 MHz
HO-68 31 Oct 22:30:45 22:34:17 14° 268° (W) 22:37:50 435.675 MHz FM
UKube-1 31 Oct 22:38:21 22:40:44 15° 266° (W) 22:43:09 145.840 MHz, 145.915 MHz
ZACube-1 31 Oct 22:46:28 22:50:30 31° 263° (W) 22:54:28 437.345 MHz
RS-15 31 Oct 23:11:29 23:19:57 25° 322° (NW) 23:28:29 29.354 - 29.394 USB, Beacon 29.352 USB
AO-40 31 Oct 23:17:06 23:59:11 12° 245° (WSW) 00:53:54 Beacon 2401.320
Sapphire 01 Nov 00:33:21 00:36:22 15° 104° (ESE) 00:39:22 437.095 MHz 1200 baud AX-25 AFSK
PCSat 01 Nov 00:53:16 00:57:44 27° 107° (ESE) 01:02:13 145.825 MHz
JAS-1B 01 Nov 01:09:35 01:16:15 32° 98° (E) 01:23:53 435.800 - 435.900 CW/SSB
Oscar 19 01 Nov 01:16:00 01:20:15 26° 96° (E) 01:24:29 437.125 CW, 437.150 USB
RS-15 01 Nov 01:36:15 01:38:25 11° 358° (N) 01:40:35 29.354 - 29.394 USB, Beacon 29.352 USB
AO-27 01 Nov 01:54:00 01:58:12 24° 96° (E) 02:02:21 436.795 MHz FM
Oscar 16 01 Nov 02:02:29 02:07:38 82° 103° (ESE) 02:12:45 437.025 USB, Beacon 2401.1428
Gurwin Techsat 1B 01 Nov 02:13:23 02:17:09 20° 94° (E) 02:20:54 435.225 FM
Sapphire 01 Nov 02:13:54 02:19:12 59° 298° (WNW) 02:24:34 437.095 MHz 1200 baud AX-25 AFSK
TMSAT-1 01 Nov 02:19:48 02:23:00 16° 93° (E) 02:26:11 436.925 FM
AO-Echo 01 Nov 02:32:15 02:37:36 83° 103° (ESE) 02:42:50 ?
PCSat 01 Nov 02:36:03 02:40:57 35° 303° (WNW) 02:45:53 145.825 MHz
Uribyol 2 01 Nov 02:36:38 02:41:49 71° 102° (ESE) 02:46:58 436.500 FM
ITAMSAT 1 01 Nov 02:44:45 02:49:59 80° 103° (ESE) 02:55:10 435.822 SSB
Oscar 19 01 Nov 02:55:06 02:59:31 30° 290° (WNW) 03:03:57 437.125 CW, 437.150 USB
JAS-1B 01 Nov 02:59:46 03:06:45 48° 289° (WNW) 03:14:59 435.800 - 435.900 CW/SSB
AO-7 01 Nov 03:00:50 03:02:20 11° 90° (E) 03:03:49 29.400 - 29.500 MHz
PANSAT 01 Nov 03:18:38 03:21:41 22° 166° (SSE) 03:24:43 not established
AO-27 01 Nov 03:33:02 03:37:42 34° 290° (WNW) 03:42:19 436.795 MHz FM
Oscar 16 01 Nov 03:45:40 03:46:14 10° 298° (WNW) 03:46:48 437.025 USB, Beacon 2401.1428
RS-15 01 Nov 03:49:09 03:57:18 22° 35° (NE) 04:05:37 29.354 - 29.394 USB, Beacon 29.352 USB
Gurwin Techsat 1B 01 Nov 03:52:15 03:57:15 43° 288° (WNW) 04:02:14 435.225 FM
Saudisat 1A 01 Nov 03:54:53 03:56:33 12° 108° (ESE) 03:58:14 436.775 MHz
TMSAT-1 01 Nov 03:58:02 04:03:10 52° 287° (WNW) 04:08:16 436.925 FM
OPAL 01 Nov 03:59:17 04:03:04 21° 65° (ENE) 04:06:49 ?
AO-Echo 01 Nov 04:14:17 04:15:33 11° 298° (WNW) 04:16:49 ?
Uribyol 2 01 Nov 04:18:35 04:20:38 12° 297° (WNW) 04:22:40 436.500 FM
Uosat F 01 Nov 04:24:38 04:29:16 36° 98° (E) 04:33:51 435.120 FM
ITAMSAT 1 01 Nov 04:27:24 04:28:44 11° 298° (WNW) 04:30:03 435.822 SSB
JAS-2 01 Nov 04:36:30 04:41:56 20° 90° (E) 04:47:10 435.800 - 435.900 CW/SSB, 435.910 FM
AO-7 01 Nov 04:47:50 04:56:11 75° 106° (ESE) 05:04:31 29.400 - 29.500 MHz
PANSAT 01 Nov 04:57:56 05:01:25 33° 179° (S) 05:04:53 not established
Hamsat 01 Nov 05:07:45 05:09:11 11° 92° (E) 05:10:37 145.90 MHz
Saudisat 1A 01 Nov 05:31:20 05:35:36 53° 302° (WNW) 05:39:55 436.775 MHz
OPAL 01 Nov 05:36:53 05:41:39 39° 259° (W) 05:46:23 ?
STRAND 1 01 Nov 05:55:57 06:00:30 33° 70° (ENE) 06:05:06 ?
RS-15 01 Nov 06:00:30 06:11:47 77° 60° (ENE) 06:23:34 29.354 - 29.394 USB, Beacon 29.352 USB
Uosat F 01 Nov 06:03:57 06:07:47 22° 293° (WNW) 06:11:36 435.120 FM
JAS-2 01 Nov 06:19:38 06:27:29 72° 286° (WNW) 06:34:56 435.800 - 435.900 CW/SSB, 435.910 FM
PANSAT 01 Nov 06:37:59 06:41:10 25° 192° (SSW) 06:44:20 not established
Hamsat 01 Nov 06:41:16 06:45:19 46° 285° (WNW) 06:49:24 145.90 MHz
AO-7 01 Nov 06:42:08 06:48:07 23° 303° (WNW) 06:54:06 29.400 - 29.500 MHz
SO-67 01 Nov 06:56:24 06:59:14 24° 96° (E) 07:02:03 435.3500 MHz FM
STRAND 1 01 Nov 07:35:35 07:39:41 24° 264° (W) 07:43:48 ?
MaSat-1 01 Nov 07:42:05 07:44:25 49° 249° (WSW) 07:46:40 437.345 MHz
JAS-2 01 Nov 08:07:51 08:11:04 13° 303° (WNW) 08:14:16 435.800 - 435.900 CW/SSB, 435.910 FM
HO-68 01 Nov 08:12:10 08:16:54 18° 93° (E) 08:21:35 435.675 MHz FM
RS-15 01 Nov 08:14:36 08:23:03 25° 257° (WSW) 08:31:49 29.354 - 29.394 USB, Beacon 29.352 USB
PANSAT 01 Nov 08:20:23 08:20:44 10° 203° (SSW) 08:21:05 not established
ISS 01 Nov 08:21:27 08:24:13 25° 130° (SE) 08:27:00 145.800 FM
SO-67 01 Nov 08:30:01 08:31:57 14° 290° (WNW) 08:33:53 435.3500 MHz FM
